Home > Time Zones > World Clock > Weather > Iran > Rasht > Past weeks

Flag for Iran Weather past 2 weeks in Rasht, Iran

Now
79 °F

Broken clouds.


Feels Like: 81 °F
Forecast: 68 / 90 °F
Wind: 5 mph from South

Location: Rasht Airport

Current Time: May 30, 2015 at 9:58:37 PM

Latest Report: May 30, 2015 at 8:00 PM


Visibility: 4 mi

Pressure: 29.83 "Hg

Humidity: 65%

Dew point: 66 °F

Location of RashtLocation

Historic Weather in Rasht — Graph

°F

Rasht temperature yesterday

Maximum temperature yesterday: 82 °F (at 12:30 PM)
Minimum temperature yesterday: 72 °F (at 6:30 AM)
Average temperature yesterday: 79 °F

Past Weeks' High & Low Weather Summary

 TemperatureHumidityPressure
High91 °F (May 28, 4:30 PM)100% (May 16, 6:30 AM)30.09 "Hg (May 16, 6:30 AM)
Low59 °F (May 16, 6:30 AM)37% (May 25, 1:30 PM)29.56 "Hg (May 28, 5:30 PM)
Average74 °F71%29.91 "Hg
* Reported May 15 7:30 PM — May 30 8:00 PM, Rasht, Weather by CustomWeather, © 2015

Note: Actual official high and low records may vary slightly from our data, if they occured in-between our weather recording intervals... More about our weather records

Advertising

Rasht weather history for previous 24 hours

 ConditionsComfort  
Time TempWeatherWind HumidityBarometerVisibility
8:00 PM
Sat, May 30
79 °FBroken clouds.5 mph65%29.83 "Hg4 mi
7:30 PM79 °FBroken clouds.No wind65%29.83 "Hg4 mi
7:00 PM79 °FBroken clouds.5 mph70%29.83 "Hg4 mi
6:30 PM79 °FBroken clouds.5 mph70%29.83 "Hg4 mi
6:00 PM81 °FBroken clouds.7 mph66%29.80 "Hg4 mi
5:30 PM81 °FBroken clouds.7 mph66%29.80 "Hg5 mi
5:00 PM82 °FBroken clouds.7 mph66%29.80 "Hg5 mi
4:30 PMN/APassing clouds.7 mphN/AN/A5 mi
4:00 PM82 °FPartly sunny.5 mph66%29.80 "Hg5 mi
3:30 PM82 °FPartly sunny.9 mph66%29.80 "Hg5 mi
3:00 PM82 °FPartly sunny.5 mph66%29.80 "Hg5 mi
2:30 PM82 °FPartly sunny.5 mph66%29.80 "Hg5 mi
2:00 PM82 °FScattered clouds.9 mph70%29.80 "Hg5 mi
1:30 PM82 °FScattered clouds.9 mph70%29.80 "Hg5 mi
1:00 PM84 °FScattered clouds.7 mph66%29.77 "Hg5 mi
12:30 PM84 °FScattered clouds.12 mph66%29.77 "Hg5 mi
12:00 PM82 °FScattered clouds.7 mph66%29.77 "Hg5 mi
11:30 AM82 °FScattered clouds.7 mph66%29.77 "Hg5 mi
11:00 AM79 °FScattered clouds.7 mph79%29.77 "Hg5 mi
10:30 AM77 °FScattered clouds.7 mph83%29.77 "Hg5 mi
10:00 AM77 °FScattered clouds.7 mph83%29.77 "Hg5 mi
9:30 AM77 °FPassing clouds.5 mph83%29.77 "Hg5 mi
9:00 AM77 °FPassing clouds.9 mph83%29.74 "Hg5 mi
8:30 AM75 °FClear.5 mph89%29.74 "Hg4 mi
8:00 AM72 °FClear.No wind88%29.71 "Hg4 mi
7:30 AM72 °FClear.5 mph88%29.71 "Hg4 mi
7:00 AM70 °FClear.No wind94%29.68 "Hg4 mi
6:30 AM70 °FClear.No wind94%29.68 "Hg4 mi
Weather by CustomWeather, © 2015

See weather overviewHow to use our weather pages